Pomona, NJ

2:02 AM EDT on October 01, 2016 (GMT -0400)
Atlantic City International

Weather History for KACY - July, 2014

Change the Weather History Date:

Sunday, July 13, 2014

  Actual Average Record
Temperature  
Mean Temperature 77 °F 76 °F  
Max Temperature 83 °F 86 °F 99 °F (1880)
Min Temperature 70 °F 67 °F 49 °F (1971)
Degree Days  
Heating Degree Days 0 0  
Month to date heating degree days 0 0  
Since 1 June heating degree days 10 27  
Since 1 July heating degree days 0 0  
Cooling Degree Days 12 11  
Month to date cooling degree days 146 140  
Year to date cooling degree days 378 407  
Since 1 June cooling degree days 342 343  
Growing Degree Days 26 (Base 50)    
Moisture  
Dew Point 70 °F    
Average Humidity 85    
Maximum Humidity 100    
Minimum Humidity 69    
Precipitation  
Precipitation 0.00 in 0.13 in 3.47 in (1897)
Month to date precipitation 2.30 1.50  
Year to date precipitation 24.02 21.89  
Snow  
Snow 0.00 in 0.00 in 0.00 in (1903)
Month to date snowfall 0.0 0.0  
Since 1 June snowfall 0.0 0.0  
Since 1 July snowfall 0.0 0.0  
Snow Depth 0.00 in    
Sea Level Pressure  
Sea Level Pressure 30.06 in    
Wind  
Wind Speed 11 mph (South)    
Max Wind Speed 21 mph    
Max Gust Speed 29 mph    
Visibility 10 miles    
Events      
T = Trace of Precipitation, MM = Missing Value Source: NWS Daily Summary

Daily Weather History Graph

Daily Weather History Graph

Search for Another Location

Airport or City:

Trip Planner

Search our weather history database for the weather conditions in past years. The results will help you decide how hot, cold, wet, or windy it might be!

Date:

Astronomy

Jul. 13, 2014 Rise Set
Actual Time 5:42 AM EDT 8:25 PM EDT
Civil Twilight 5:10 AM EDT 8:57 PM EDT
Nautical Twilight 4:30 AM EDT 9:36 PM EDT
Astronomical Twilight 3:45 AM EDT 10:21 PM EDT
Moon 9:12 PM EDT (7/13) 7:08 AM EDT (7/13)
Length of Visible Light 15h 46m
Length of Day
14h 43m
Full, 98% of the Moon is Illuminated
Jul 13
Full
Jul 18
Last Quarter
Jul 26
New
Aug 3
First Quarter
Aug 10
Full

Hourly Weather History & Observations

Time (EDT) Temp. Heat Index Dew Point Humidity Pressure Visibility Wind Dir Wind Speed Gust Speed Precip Events Conditions
12:54 AM 71.1 °F - 69.1 °F 93% 30.15 in 10.0 mi South 5.8 mph - N/A   Mostly Cloudy
1:54 AM 71.1 °F - 69.1 °F 93% 30.13 in 10.0 mi South 8.1 mph - N/A   Overcast
2:03 AM 71.1 °F - 69.1 °F 93% 30.13 in 10.0 mi South 6.9 mph - N/A   Mostly Cloudy
2:16 AM 71.1 °F - 69.1 °F 93% 30.13 in 10.0 mi South 5.8 mph - N/A   Partly Cloudy
2:54 AM 70.0 °F - 69.1 °F 97% 30.12 in 10.0 mi South 5.8 mph - N/A   Clear
3:54 AM 70.0 °F - 68.0 °F 93% 30.12 in 10.0 mi SSW 5.8 mph - N/A   Clear
4:23 AM 70.0 °F - 68.0 °F 93% 30.11 in 10.0 mi SSW 5.8 mph - N/A   Scattered Clouds
4:54 AM 70.0 °F - 69.1 °F 97% 30.11 in 10.0 mi South 6.9 mph - N/A   Scattered Clouds
5:13 AM 70.0 °F - 68.0 °F 93% 30.12 in 10.0 mi SSW 6.9 mph - N/A   Partly Cloudy
5:54 AM 70.0 °F - 68.0 °F 93% 30.12 in 10.0 mi South 6.9 mph - N/A   Scattered Clouds
6:35 AM 71.1 °F - 69.1 °F 93% 30.11 in 10.0 mi South 9.2 mph - N/A   Mostly Cloudy
6:54 AM 71.1 °F - 69.1 °F 93% 30.12 in 10.0 mi SSW 8.1 mph - N/A   Mostly Cloudy
7:54 AM 73.0 °F - 69.1 °F 87% 30.11 in 10.0 mi South 11.5 mph - N/A   Partly Cloudy
8:54 AM 75.9 °F - 69.1 °F 79% 30.09 in 10.0 mi South 9.2 mph - N/A   Scattered Clouds
9:54 AM 79.0 °F - 71.1 °F 77% 30.09 in 10.0 mi South 8.1 mph - N/A   Scattered Clouds
10:54 AM 77.0 °F - 70.0 °F 79% 30.08 in 10.0 mi SSE 8.1 mph - N/A   Mostly Cloudy
11:54 AM 78.1 °F - 70.0 °F 76% 30.06 in 10.0 mi South 13.8 mph - N/A   Mostly Cloudy
12:54 PM 80.1 °F 83.6 °F 71.1 °F 74% 30.05 in 10.0 mi South 12.7 mph - N/A   Mostly Cloudy
1:54 PM 81.0 °F 85.2 °F 72.0 °F 74% 30.04 in 10.0 mi South 13.8 mph 23.0 mph N/A   Clear
2:54 PM 82.0 °F 86.7 °F 72.0 °F 71% 30.01 in 10.0 mi South 16.1 mph - N/A   Clear
3:54 PM 80.1 °F 83.8 °F 72.0 °F 76% 29.99 in 10.0 mi South 16.1 mph 21.9 mph N/A   Scattered Clouds
4:54 PM 81.0 °F 85.2 °F 72.0 °F 74% 29.97 in 10.0 mi South 15.0 mph 23.0 mph N/A   Clear
5:54 PM 80.1 °F 83.6 °F 71.1 °F 74% 29.95 in 10.0 mi South 17.3 mph 25.3 mph N/A   Clear
6:54 PM 78.1 °F - 70.0 °F 76% 29.95 in 10.0 mi South 15.0 mph 23.0 mph N/A   Clear
7:54 PM 75.9 °F - 70.0 °F 82% 29.96 in 10.0 mi South 16.1 mph 20.7 mph N/A   Clear
8:54 PM 75.0 °F - 71.1 °F 87% 29.95 in 10.0 mi South 11.5 mph 20.7 mph N/A   Clear
9:54 PM 75.0 °F - 71.1 °F 87% 29.97 in 10.0 mi SSW 12.7 mph - N/A   Clear
10:51 PM 75.2 °F - 71.6 °F 89% 29.97 in 9.0 mi South 15.0 mph 20.7 mph N/A   Partly Cloudy
10:54 PM 75.0 °F - 71.1 °F 87% 29.97 in 9.0 mi South 15.0 mph 21.9 mph N/A   Partly Cloudy
11:54 PM 73.9 °F - 72.0 °F 93% 29.96 in 9.0 mi SSW 11.5 mph - N/A   Partly Cloudy